Location: Hamburg
(53.5500°N, 10.0000°E)
Time: 16:21:54
(UTC+02:00)

ISS - Visible Passes

Search period start: 02 August 2015 00:00
Search period end: 12 August 2015 00:00
Orbit: 401 x 403 km, 51.6° (Epoch: 02 August)

Date Brightness Start Highest point End Pass type
(mag) Time Alt. Az. Time Alt. Az. Time Alt. Az.
02 Aug -1.8 01:12:04 10° W 01:13:32 24° WSW 01:13:32 24° WSW visible
02 Aug -2.7 22:43:11 10° SW 22:46:10 33° SSE 22:49:09 10° E visible
03 Aug -3.4 00:19:06 10° WSW 00:22:20 62° S 00:22:37 58° SSE visible
03 Aug -3.3 23:26:09 10° WSW 23:29:21 56° S 23:31:27 20° E visible
04 Aug -1.8 01:02:25 10° W 01:04:02 26° WSW 01:04:02 26° WSW visible
04 Aug -3.1 22:33:15 10° WSW 22:36:24 47° SSE 22:39:33 10° E visible
05 Aug -3.4 00:09:25 10° W 00:12:39 61° S 00:12:46 60° S visible
05 Aug -3.4 23:16:25 10° W 23:19:39 63° S 23:21:28 23° ESE visible
06 Aug -1.4 00:52:45 10° W 00:54:03 21° W 00:54:03 21° W visible
06 Aug -3.3 22:23:25 10° WSW 22:26:39 58° S 22:29:52 10° E visible
06 Aug -3.1 23:59:43 10° W 00:02:44 51° SSW 00:02:44 51° SSW visible
07 Aug -3.3 23:06:41 10° W 23:09:55 60° S 23:11:24 28° ESE visible
08 Aug -1.0 00:43:09 10° W 00:43:59 15° WSW 00:43:59 15° WSW visible
08 Aug -3.3 22:13:38 10° W 22:16:53 63° S 22:20:04 10° E visible
08 Aug -2.5 23:50:01 10° W 23:52:39 36° SW 23:52:39 36° SW visible
09 Aug -3.1 22:56:55 10° W 23:00:06 49° SSW 23:01:19 30° SE visible
10 Aug -0.6 00:33:42 10° W 00:33:54 11° WSW 00:33:54 11° WSW visible
10 Aug -3.2 22:03:51 10° W 22:07:04 58° S 22:10:00 12° ESE visible
10 Aug -1.8 23:40:22 10° W 23:42:34 24° SW 23:42:34 24° SW visible
11 Aug -2.5 22:47:10 10° W 22:50:12 35° SSW 22:51:16 27° SSE visible
